This demonstration page uses our WeatherBlox Daily Observations layout. Learn more.

Left ArrowRight Arrow

Hourly Observations for August 14, 2021

Temp ( °F °C ) Dew Point ( °F °C ) Humidity (%) Winds ( mph kmh ) Pressure ( in mb ) Visibility ( mi km ) Precip ( " mm )
12:56 am 00:56 Mostly Clear 64 17.8 59 15 84 84 SSE 5 7 30.25 1025 7 11 0.00 0.00
1:56 am 01:56 Partly Cloudy 64 17.8 59 15 84 84 SSE 6 9 30.25 1024 10 16 0.00 0.00
2:56 am 02:56 Mostly Cloudy 63 17.2 58 14.4 84 84 Calm 30.25 1024 10 16 0.00 0.00
3:56 am 03:56 Partly Cloudy 60 15.6 58 14.4 93 93 ENE 5 7 30.25 1024 10 16 0.00 0.00
4:56 am 04:56 Clear 61 16.1 58 14.4 90 90 Calm 30.25 1024 10 16 0.00 0.00
5:56 am 05:56 Clear 60 15.6 58 14.4 93 93 Calm 30.25 1024 10 16 0.00 0.00
6:56 am 06:56 Mostly Cloudy 64 17.8 60 15.6 87 87 WSW 3 6 30.25 1025 10 16 0.00 0.00
7:56 am 07:56 Partly Cloudy 64 17.8 62 16.7 93 93 E 5 7 30.27 1025 10 16 0.00 0.00
8:56 am 08:56 Sunny 69 20.6 63 17.2 81 81 SE 9 15 30.27 1025 10 16 0.00 0.00
9:56 am 09:56 Sunny 74 23.3 65 18.3 74 74 SSE 13 20 30.26 1025 10 16 0.00 0.00
10:56 am 10:56 Mostly Sunny 77 25 65 18.3 66 66 SSE 13 20 30.26 1025 10 16 0.00 0.00
11:56 am 11:56 Mostly Sunny 78 25.6 65 18.3 64 64 SE 15 24 30.24 1024 10 16 0.00 0.00
12:56 pm 12:56 Sunny 80 26.7 65 18.3 60 60 SSE 14 22 30.23 1024 10 16 0.00 0.00
1:56 pm 13:56 Mostly Sunny 82 27.8 65 18.3 56 56 S 10 17 30.21 1023 10 16 0.00 0.00
2:56 pm 14:56 Partly Cloudy 82 27.8 65 18.3 56 56 SE 14 22 30.19 1023 10 16 0.00 0.00
3:56 pm 15:56 Mostly Cloudy 83 28.3 65 18.3 55 55 SSE 10 17 30.19 1022 10 16 0.00 0.00
4:56 pm 16:56 Mostly Cloudy 82 27.8 66 18.9 58 58 SSE 10 17 30.16 1021 10 16 0.00 0.00
5:56 pm 17:56 Mostly Sunny 82 27.8 66 18.9 58 58 SSE 15 24 30.15 1021 10 16 0.00 0.00
6:56 pm 18:56 Sunny 80 26.7 64 17.8 58 58 SE 15 24 30.12 1020 10 16 0.00 0.00
7:56 pm 19:56 Sunny 76 24.4 64 17.8 67 67 SE 10 17 30.13 1020 10 16 0.00 0.00
8:02 pm 20:02 Hazy 75 24 64 18 69 69 SE 10 17 30.07 1018 1 1 0.00 0.00
8:09 pm 20:09 Hazy 75 24 64 18 69 69 SE 9 15 30.07 1018 1 1 0.00 0.00
8:12 pm 20:12 Hazy 75 24 64 18 69 69 SE 8 13 30.07 1018 2 2 0.00 0.00
8:19 pm 20:19 Sunny 73 23 64 18 74 74 SE 9 15 30.07 1018 10 16 0.00 0.00
8:56 pm 20:56 Clear 72 22.2 65 18.3 79 79 ESE 8 13 30.13 1020 10 16 0.00 0.00
9:56 pm 21:56 Clear 71 21.7 64 17.8 79 79 SE 12 19 30.13 1020 10 16 0.00 0.00
10:56 pm 22:56 Clear 70 21.1 62 16.7 76 76 SE 14 22 30.12 1020 10 16 0.00 0.00
11:56 pm 23:56 Clear 70 21.1 62 16.7 76 76 SE 14 22 30.12 1020 10 16 0.00 0.00

Powered by AerisWeather